Regional Weather Roundup
Issued by NWS Charleston, SC

Home | Current Version | Previous Version | Text Only | Print | Product List | Glossary On
Versions: 1 2 3 4 5 6 7 8 9 10 11 12 13 14 15 16 17 18 19 20 21 22 23 24 25 26 27 28 29 30 31 32 33 34 35 36 37 38 39 40 41 42 43 44 45 46 47 48 49 50
428
ASUS42 KCHS 261327
RWRCHS

Regional Weather Roundup
National Weather Service Charleston SC
900 AM EDT THU APR 26 2018

NOTE: "fair" indicates few or no clouds below 12,000 feet with no
significant weather and/or obstructions to visibility.

Not all stations are quality controlled. Use data with caution,
especially dewpoint observations.

SCZ027-030-031-034>040-042>050-261400-
...Southeast South Carolina...

CITY           SKY/WX    TMP DP  RH WIND       PRES   REMARKS
N Charleston   FAIR      65  57  75 SW5       29.87S
Waterfront Prk   N/A     63  58  84 VRB3      29.73R
Mount Pleasant FAIR      66  59  77 S3        29.87F
Johns Island   FAIR      68  59  73 CALM      29.88S
Pinopolis        N/A     64  61  88 CALM      29.78R
Moncks Corner  FAIR      64  57  77 SW3       29.87S
Summerville    FAIR      63  57  82 CALM      29.88S
Beaufort MCAS  FAIR      64  58  80 SW5       29.88R
Beaufort Arpt  FAIR      64  57  77 SW3       29.88S
Hilton Head Is SUNNY     64  57  77 SW6       29.89R
Walterboro     FAIR      63  55  77 S3        29.88S
Allendale      FAIR      63  55  77 CALM      29.87S

...Southern Midlands and Pee Dee...

CITY           SKY/WX    TMP DP  RH WIND       PRES   REMARKS
Georgetown     FAIR      64  64 100 CALM      29.88S
Kingstree      FAIR      64  54  68 NE7       29.87R
Orangeburg     FAIR      63  54  72 VRB5      29.87R
Barnwell       FAIR      64  55  72 E7        29.87S
Aiken          FAIR      63  54  72 E7        29.91R
Manning        FAIR      61  52  72 SE5       29.87S
Columbia       FAIR      66  54  65 E10       29.86S
Sumter         FAIR      65  53  65 NE12      29.84R
Florence       FAIR      66  55  67 NE10      29.87S
Myrtle Beach   PTSUNNY   67  58  72 NE6       29.88S
N Myrtle Beach PTSUNNY   68  57  68 NE9       29.87R

$$

GAZ063-065-086>088-099>101-113>116-118-119-134>141-150-261400-
...Southeast Georgia...

CITY           SKY/WX    TMP DP  RH WIND       PRES   REMARKS
Savannah Arpt  CLOUDY    63  55  75 W6        29.89R
Hunter AAF     FAIR      63  57  81 W5        29.86S
Fort Stewart   FAIR      64  55  73 CALM      29.88R
Statesboro     FAIR      64  52  66 CALM      29.89S
Sylvania       FAIR      62  58  87 CALM      29.89S
Claxton        FAIR      65  57  76 CALM      29.90R

...CSRA, Central and far Southeast Georgia...

CITY           SKY/WX    TMP DP  RH WIND       PRES   REMARKS
Thomson        FAIR      58  53  83 CALM      29.92F
Augusta-Bush   FAIR      61  54  77 CALM      29.87S
Augusta-Daniel FAIR      63  55  75 CALM      29.88R
Swainsboro     FAIR      61  55  82 CALM      29.89S
Vidalia        FAIR      63  54  72 CALM      29.89S
Eastman        FAIR      62  51  67 CALM      29.92S
Hazlehurst     FAIR      64  54  71 CALM      29.88F
Alma           FAIR      62  56  80 CALM      29.89S
Waycross       FAIR      65  58  76 CALM      29.91R
Jesup          FAIR      64  55  72 CALM      29.90S
Baxley         FAIR      61  59  94 CALM      29.90S
Brunswick      FAIR      66  54  63 CALM      29.90F
Saint Simons   FAIR      66  58  75 CALM      29.90R

$$

SCZ027-028-034-036>038-045-046-048>050-GAZ119-141-261400-
...Lake and Supplemental Coastal Observations...

STATION/POSITION TIME  TEMP    WIND        PRES    WAVE   SWELL
                       AIR SEA DIR/SP/G            HT/PER HT/PER/DIR
                 (UTC) (F)     (DEG/KT/KT) (MB)    (FT/S) (FT/S/D)
Winyah Bay       1245   64        CALM     1012.0R
Lake Murray      1220   63      50/  2/  3 1010.8R
ACE Basin NERRS  1245   65     350/  1       N/A
Fort Pulaski     1300   64 66  310/  2/  4 1012.3
Sapelo Island    1300   65     250/  2     1012.0

$$

ANZ835-935-AMZ111-154-330-350-352-354-370-450-454-472-261400-
...C-MAN and Buoy Observations...

STATION/POSITION TIME  TEMP    WIND        PRES    WAVE   SWELL
                       AIR SEA DIR/SP/G            HT/PER HT/PER/DIR
                 (UTC) (F)     (DEG/KT/KT) (MB)    (FT/S) (FT/S/D)
Buoy 41004       1300      69  240/  6/  8 1011.9
Buoy 41008       1250   66 66  270/  2/  2 1012.1R   2/10   2/ 80/10
Folly Beach CMAN 1200   64     220/  5/  5 1011.9R
Capers Nearshore 1308   65 65  230/  6/  8 1012.1S
Fripp Nearshore  1308   63 65  250/  6/  8 1011.5R


STATION/POSITION TIME  TEMP    WIND        PRES    WAVE   SWELL
                       AIR SEA DIR/SP/G            HT/PER HT/PER/DIR
                 (UTC) (F)     (DEG/KT/KT) (MB)    (FT/S) (FT/S/D)
5E St. Marys GA  1300      69                N/A     2/11   2/ 80/11
Frying Pan Buoy  1310   69     200/  2/  4 1011.8
Buoy 41025       1310   65     310/  6/ 10 1012.2
Cape Lookout NC  1200          300/  2/  3 1011.9R
Buoy 41002       1310   72     220/ 12/ 14 1013.1
Buoy 41010       1310   76     190/  8/ 10 1013.1
St Augustine FL  1300   67 67  360/  3/  4 1013.5R


$$




USA.gov is the U.S. government's official web portal to all federal, state and local government web resources and services.